[[{"header":{"parameterUnit":"m.s-1","parameterCategory":1,"la1":30.2991,"la2":30.254,"lo1":-89.0895,"lo2":-89.0444,"dy":0.0017,"dx":0.0017,"nx":28,"ny":28,"refTime":"2025-11-18T09:00:00:Z","depth":0,"parameterNumber":2,"parameterNumberName":"U-component_of_WINDS"},"data":[0,0,0,0,0,0,0,0,0,0,0,0,0,0,0,0,0,0,0,0,0,0,0,0,0,0,0,0,0,0,0,0,0,0,0,0,0,0,0,0,0,0,0,0,0,0,0,0,0,0,0,0,0,0,0,0,0,0,0.2875,0.2877,0,0.3054,0.3056,0.3059,0.3147,0.3147,0.3147,0.3147,0.3333,0.3337,0.3342,0,0,0,0,0,0,0,0,0,0,0,0,0,0.2612,0.2617,0.2875,0.2878,0.288,0.3054,0.3057,0.3059,0.3147,0.3147,0.3147,0.3147,0.3331,0.3337,0.3343,0,0,0,0,0,0,0,0,0,0,0,0,0,0.2752,0.2618,0.2875,0.2945,0.2953,0.3054,0.3057,0.306,0.3147,0.3147,0.3147,0.3147,0.3329,0.3336,0.3344,0.3389,0,0,0.3366,0.3369,0,0,0,0,0,0,0,0,0.2744,0.2762,0.2932,0.294,0.2949,0.3078,0.3032,0.317,0.3147,0.3073,0.3147,0.3147,0.3248,0.3262,0.3296,0.3398,0.3406,0.3367,0.3371,0.3375,0.3377,0,0,0,0,0,0,0,0.2734,0.2755,0.2946,0.2935,0.2945,0.2968,0.2988,0.3059,0.3159,0.308,0.3087,0.3106,0.3253,0.3289,0.3301,0.3409,0.3367,0.3373,0.3378,0.3381,0.3559,0.3559,0,0,0,0,0,0,0.2713,0.2746,0.2941,0.2952,0.2845,0.2973,0.2995,0.3037,0.3158,0.3177,0.3106,0.311,0.3276,0.3292,0.3308,0.3371,0.3375,0.3382,0.3386,0.3559,0.3559,0.3559,0,0,0,0,0,0,0.2707,0.273,0.2933,0.2851,0.2878,0.2977,0.3024,0.304,0.3076,0.3178,0.3197,0.3124,0.3277,0.3297,0.3369,0.3378,0.3385,0.3392,0.3558,0.3559,0.3559,0.3495,0,0,0,0,0,0,0.2699,0.2727,0.2745,0.285,0.2882,0.299,0.3024,0.3044,0.3089,0.3095,0.32,0.3217,0.3278,0.3357,0.3376,0.3388,0.3397,0.3558,0.3559,0.3559,0.3497,0.3493,0.349,0,0,0,0,0,0.2689,0.272,0.2745,0.2768,0.2907,0.299,0.3009,0.3078,0.3089,0.3108,0.3174,0.3214,0.3374,0.3364,0.3386,0.34,0.3558,0.3558,0.3559,0.3498,0.3494,0.349,0,0,0,0,0,0,0.2613,0.2735,0.2764,0.283,0.2899,0.3005,0.3031,0.3071,0.3139,0.3142,0.3225,0.3248,0.3312,0.3364,0.335,0.3452,0.347,0.3475,0.3416,0.3413,0.3409,0.3396,0.3404,0,0,0,0,0,0.2604,0.2661,0.2764,0.2812,0.2845,0.2932,0.2971,0.3018,0.3094,0.3124,0.3195,0.3267,0.3334,0.3376,0.3443,0.3504,0.3529,0.3526,0.3522,0.3519,0.3523,0.356,0.356,0.3561,0.3561,0.3561,0,0,0.2585,0.2659,0.269,0.2798,0.2858,0.2916,0.2956,0.3016,0.306,0.3133,0.3205,0.3259,0.3346,0.3412,0.3445,0.3457,0.3528,0.352,0.3516,0.3522,0.3561,0.3561,0.3561,0.3562,0.3562,0.3562,0,0,0.2581,0.2642,0.2689,0.2747,0.2836,0.2894,0.2905,0.3006,0.3045,0.3118,0.3174,0.3228,0.3341,0.3401,0.3446,0.3464,0.3505,0.3484,0.3467,0.3503,0.3503,0.3503,0.3511,0.3513,0.3487,0.3487,0.3487,0,0.2547,0.2636,0.2708,0.2765,0.2812,0.2879,0.2928,0.2982,0.3088,0.3119,0.313,0.3274,0.3337,0.3419,0.3424,0.3458,0.3474,0.3473,0.3497,0.3498,0.3499,0.3508,0.351,0.3484,0.3484,0.3485,0.3485,0,0.2591,0.2652,0.2679,0.2779,0.2829,0.2881,0.2962,0.3004,0.3046,0.3103,0.3177,0.3255,0.3339,0.3362,0.3405,0.3451,0.3456,0.348,0.35,0.3495,0.3504,0.3508,0.348,0.3481,0.3482,0.3482,0,0,0.2544,0.2684,0.2692,0.2739,0.2843,0.2892,0.2948,0.3029,0.3064,0.3135,0.3185,0.3279,0.3303,0.3354,0.3404,0.3435,0.3446,0.3457,0.346,0.3453,0.3504,0.3485,0.3487,0.3473,0.3474,0.3475,0.3497,0,0.2556,0.2658,0.2724,0.2801,0.2859,0.2924,0.2973,0.3042,0.3096,0.3154,0.3215,0.3281,0.3307,0.3338,0.3372,0.3438,0.3458,0.3437,0.3522,0.3524,0.3499,0.3492,0.3472,0.3489,0.3501,0.3502,0.3502,0,0.2583,0.2651,0.2733,0.2831,0.2858,0.29,0.2981,0.3035,0.3116,0.3153,0.321,0.326,0.3323,0.3337,0.3425,0.341,0.3448,0.3486,0.3488,0.35,0.3513,0.3504,0.3496,0.3499,0.3508,0.3508,0.3507,0,0.2542,0.2655,0.2719,0.2757,0.2872,0.2901,0.295,0.303,0.3075,0.3146,0.3177,0.3254,0.3297,0.3356,0.3426,0.3429,0.3508,0.3527,0.3542,0.354,0.3556,0.3555,0.3555,0.3579,0.3579,0.3579,0.3579,0,0.2548,0.2596,0.2702,0.2742,0.2798,0.2874,0.2927,0.2982,0.3053,0.3105,0.3166,0.3214,0.3304,0.3363,0.3418,0.3484,0.3502,0.3535,0.355,0.3531,0.3526,0.3558,0.3559,0.358,0.358,0.3579,0.3579,0,0.2512,0.2585,0.2659,0.2762,0.2789,0.2826,0.2915,0.2956,0.3013,0.3079,0.3099,0.3189,0.3262,0.3338,0.3437,0.3474,0.3538,0.3557,0.351,0.3519,0.353,0.3528,0.3551,0.3559,0.3576,0.3575,0.3575,0,0.2512,0.255,0.2657,0.2696,0.2744,0.2806,0.2852,0.2929,0.2975,0.3069,0.3099,0.3176,0.3242,0.3356,0.3431,0.3507,0.353,0.3533,0.3542,0.3521,0.3531,0.3528,0.3533,0.353,0.3529,0.3529,0.3528,0,0.2504,0.2538,0.2602,0.2679,0.2733,0.2797,0.2864,0.2892,0.2982,0.3031,0.3106,0.3157,0.3258,0.3334,0.3419,0.3472,0.3515,0.3525,0.3532,0.3514,0.3485,0.3502,0.3503,0.3524,0.3524,0.3525,0.3525,0.3525,0.2487,0.2524,0.2606,0.2675,0.2733,0.2794,0.2838,0.2901,0.2965,0.3052,0.3094,0.3169,0.3249,0.3368,0.3419,0.348,0.3493,0.3504,0.3507,0.3508,0.3504,0.3474,0.3496,0.3496,0.3496,0.3497,0.3497,0,0.2483,0.2539,0.2602,0.2693,0.2748,0.2783,0.2859,0.2903,0.2968,0.3039,0.3102,0.3189,0.3263,0.3344,0.3424,0.3457,0.3479,0.3476,0.3475,0.3486,0.3488,0.3474,0.3456,0.3456,0.3456,0.3456,0.3456,0.3456,0.2488,0.2553,0.2597,0.2693,0.2748,0.2822,0.2862,0.2919,0.2976,0.307,0.3132,0.3184,0.3259,0.3345,0.3415,0.3437,0.3464,0.3455,0.3483,0.3483,0.3486,0.3489,0.3476,0.346,0.346,0.3476,0.3477,0.3477]},{"header":{"parameterUnit":"m.s-1","parameterCategory":1,"la1":30.2991,"la2":30.254,"lo1":-89.0895,"lo2":-89.0444,"dy":0.0017,"dx":0.0017,"nx":28,"ny":28,"refTime":"2025-11-18T09:00:00:Z","depth":0,"parameterNumber":3,"parameterNumberName":"V-component_of_WINDS"},"data":[0,0,0,0,0,0,0,0,0,0,0,0,0,0,0,0,0,0,0,0,0,0,0,0,0,0,0,0,0,0,0,0,0,0,0,0,0,0,0,0,0,0,0,0,0,0,0,0,0,0,0,0,0,0,0,0,0,0,1.3681,1.368,0,1.3631,1.3631,1.363,1.36,1.36,1.36,1.36,1.3545,1.3544,1.3543,0,0,0,0,0,0,0,0,0,0,0,0,0,1.3745,1.3744,1.3681,1.368,1.3679,1.3632,1.3631,1.363,1.36,1.36,1.36,1.36,1.3546,1.3544,1.3542,0,0,0,0,0,0,0,0,0,0,0,0,0,1.3708,1.3743,1.3681,1.3659,1.3656,1.3632,1.3631,1.363,1.36,1.36,1.36,1.36,1.3546,1.3544,1.3542,1.3534,0,0,1.3536,1.3535,0,0,0,0,0,0,0,0,1.371,1.3706,1.3663,1.366,1.3658,1.3622,1.3633,1.3598,1.36,1.3621,1.36,1.36,1.3571,1.3567,1.3558,1.3532,1.3529,1.3536,1.3535,1.3534,1.3533,0,0,0,0,0,0,0,1.3713,1.3708,1.3661,1.3662,1.3659,1.365,1.3645,1.3626,1.3598,1.362,1.3617,1.3612,1.3569,1.356,1.3556,1.3528,1.3536,1.3534,1.3533,1.3532,1.3493,1.3494,0,0,0,0,0,0,1.372,1.371,1.3663,1.366,1.3684,1.3649,1.3643,1.3633,1.3598,1.3592,1.3612,1.3611,1.3563,1.3558,1.3554,1.3543,1.3534,1.3532,1.3531,1.3493,1.3494,1.3494,0,0,0,0,0,0,1.3721,1.3716,1.3665,1.3684,1.3677,1.3648,1.3638,1.3633,1.3623,1.3592,1.3587,1.3608,1.3563,1.3557,1.354,1.354,1.3531,1.3529,1.3493,1.3493,1.3494,1.352,0,0,0,0,0,0,1.3723,1.3716,1.3714,1.3685,1.3676,1.3652,1.3638,1.3632,1.362,1.3618,1.3587,1.3582,1.3562,1.3543,1.3538,1.3538,1.3528,1.3493,1.3493,1.3494,1.3519,1.3521,1.3523,0,0,0,0,0,1.3725,1.3722,1.3714,1.3708,1.3673,1.3652,1.3648,1.3626,1.3621,1.3617,1.3598,1.3583,1.3541,1.3541,1.3535,1.3535,1.3493,1.3493,1.3494,1.3518,1.3521,1.3523,0,0,0,0,0,0,1.3751,1.3718,1.3708,1.3696,1.3677,1.3648,1.3643,1.363,1.3611,1.361,1.3583,1.3576,1.3562,1.3546,1.3547,1.3525,1.3515,1.3514,1.3536,1.3538,1.354,1.3544,1.3526,0,0,0,0,0,1.3755,1.3743,1.3714,1.3706,1.3697,1.3672,1.3662,1.3648,1.3627,1.3618,1.3597,1.3576,1.3559,1.3547,1.3529,1.3516,1.3509,1.3513,1.3515,1.3517,1.3516,1.3509,1.351,1.3495,1.3495,1.3495,0,0,1.3764,1.3744,1.3738,1.371,1.3694,1.3681,1.3665,1.3652,1.3641,1.3615,1.3599,1.3583,1.3557,1.3543,1.3535,1.3529,1.3519,1.3517,1.3519,1.3517,1.3509,1.3511,1.3512,1.3495,1.3495,1.3495,0,0,1.3773,1.3757,1.3748,1.3733,1.371,1.3693,1.3691,1.3663,1.3652,1.3635,1.3615,1.3602,1.3572,1.3555,1.3542,1.3545,1.3531,1.354,1.3551,1.3544,1.3545,1.3546,1.3547,1.3548,1.354,1.354,1.354,0,1.3786,1.3766,1.3745,1.3733,1.3722,1.37,1.369,1.3676,1.3647,1.3639,1.3633,1.3596,1.3577,1.3558,1.3559,1.355,1.3546,1.3544,1.3547,1.3547,1.3548,1.3549,1.3549,1.3541,1.3541,1.3541,1.3541,0,1.3784,1.3771,1.3766,1.3741,1.3729,1.3718,1.3695,1.3685,1.3671,1.3655,1.3637,1.3614,1.3592,1.3586,1.3572,1.3565,1.3562,1.3552,1.3542,1.3551,1.3552,1.3552,1.3543,1.3543,1.3542,1.3542,0,0,1.3808,1.3772,1.377,1.3759,1.3731,1.372,1.3708,1.3687,1.3679,1.366,1.3649,1.3625,1.3615,1.3601,1.3585,1.3578,1.3583,1.3568,1.3567,1.3572,1.3574,1.3583,1.3584,1.3573,1.3573,1.3573,1.3576,0,1.3813,1.3792,1.3773,1.3759,1.3746,1.3725,1.3714,1.3696,1.368,1.3666,1.3648,1.3631,1.362,1.3611,1.3604,1.3584,1.3583,1.3583,1.3562,1.3561,1.357,1.3584,1.3593,1.3597,1.3576,1.3576,1.3576,0,1.3816,1.38,1.3785,1.376,1.3754,1.3745,1.3724,1.3711,1.369,1.3678,1.3663,1.3647,1.3632,1.3623,1.3602,1.3603,1.3593,1.3582,1.3581,1.3579,1.357,1.3582,1.3598,1.3599,1.3576,1.3576,1.3576,0,1.3836,1.381,1.3798,1.3788,1.3758,1.3752,1.3739,1.3717,1.3706,1.3688,1.368,1.366,1.3649,1.3633,1.3611,1.3606,1.3592,1.3581,1.3582,1.3583,1.358,1.3581,1.3595,1.3573,1.3573,1.3573,1.3573,0,1.3844,1.3836,1.3806,1.3799,1.3789,1.3766,1.3756,1.3741,1.3722,1.371,1.369,1.3679,1.365,1.3636,1.3618,1.3604,1.3599,1.3589,1.3584,1.3591,1.3592,1.3584,1.3584,1.3573,1.3573,1.3573,1.3573,0,1.3864,1.3844,1.383,1.3803,1.3796,1.379,1.3766,1.3757,1.374,1.3726,1.3721,1.3694,1.3676,1.3653,1.3627,1.3615,1.3603,1.3595,1.3611,1.3608,1.3611,1.3611,1.3621,1.3621,1.3598,1.3599,1.3599,0,1.3871,1.3865,1.3838,1.3829,1.3817,1.3804,1.3793,1.377,1.3759,1.3734,1.3728,1.3709,1.3693,1.3665,1.3642,1.3622,1.3614,1.3619,1.3611,1.3618,1.3615,1.3616,1.3615,1.3621,1.3622,1.3622,1.3622,0,1.3886,1.3877,1.3862,1.3845,1.3833,1.3817,1.3801,1.3795,1.3768,1.3757,1.3739,1.3727,1.3701,1.3682,1.3659,1.3644,1.3629,1.3625,1.3624,1.3631,1.3641,1.3636,1.3617,1.3625,1.3625,1.3624,1.3624,1.3624,1.39,1.3894,1.3874,1.3859,1.3844,1.383,1.3821,1.3803,1.3789,1.3767,1.3754,1.3737,1.3715,1.3683,1.3668,1.3654,1.3648,1.3646,1.3646,1.3646,1.3649,1.3643,1.3649,1.3649,1.3649,1.3649,1.3649,0,1.3914,1.3901,1.3887,1.3866,1.3854,1.3842,1.3823,1.3813,1.3799,1.378,1.3765,1.3745,1.3726,1.3702,1.3682,1.3675,1.3667,1.367,1.3671,1.3668,1.3655,1.3658,1.3677,1.3677,1.3677,1.3677,1.3677,1.3677,1.392,1.3909,1.3897,1.3878,1.3864,1.3848,1.3839,1.3825,1.381,1.3789,1.3774,1.3759,1.3738,1.3716,1.3699,1.3692,1.3686,1.3691,1.3682,1.3671,1.3669,1.3666,1.3669,1.369,1.369,1.3696,1.3696,1.3696]}]]